Weather History for Fort Huachuca, AZ

Change the Weather History Date:

Friday, August 29, 2014

  Actual Average (KFHU) Record (KFHU)
Temperature  
Mean Temperature 75 °F -  
Max Temperature 87 °F 87 °F 96 °F (2011)
Min Temperature 63 °F 68 °F 60 °F (1989)
Cooling Degree Days 10    
Growing Degree Days 25 (Base 50)    
Moisture  
Dew Point 45 °F    
Average Humidity 36    
Maximum Humidity 60    
Minimum Humidity 20    
Precipitation  
Precipitation 0.00 in - - ()
Sea Level Pressure  
Sea Level Pressure 29.81 in    
Wind  
Wind Speed 7 mph (SSW)    
Max Wind Speed 10 mph    
Max Gust Speed -    
Visibility 10 miles    
Events      
Averages and records for this station are not official NWS values.
T = Trace of Precipitation, MM = Missing Value Source: NWS Daily Summary

Daily Weather History Graph

Daily Weather History Graph

Search for Another Location

Airport:

Trip Planner

Search our weather history database for the weather conditions in past years. The results will help you decide how hot, cold, wet, or windy it might be!

Date:

Astronomy

Aug. 29, 2014 Rise Set
Actual Time 5:55 AM MST 6:49 PM MST
Civil Twilight 5:30 AM MST 7:13 PM MST
Nautical Twilight 5:01 AM MST 7:43 PM MST
Astronomical Twilight 4:30 AM MST 8:13 PM MST
Moon 9:31 AM MST (8/29) 9:06 PM MST (8/29)
Length of Visible Light 13h 43m
Length of Day
12h 53m
Waxing Crescent, 16% of the Moon is Illuminated
Aug 29
Waxing Crescent
Sep 2
First Quarter
Sep 8
Full
Sep 15
Last Quarter
Sep 23
New

Hourly Weather History & Observations

Time (MST) Temp. Dew Point Humidity Pressure Visibility Wind Dir Wind Speed Gust Speed Precip Events Conditions
12:56 AM 68.0 °F 46.0 °F 45% 29.84 in 10.0 mi SW 10.4 mph - N/A   Clear
1:56 AM 66.0 °F 46.0 °F 48% 29.83 in 10.0 mi SW 9.2 mph - N/A   Clear
2:56 AM 66.0 °F 46.0 °F 48% 29.82 in 10.0 mi SW 10.4 mph - N/A   Clear
3:56 AM 64.9 °F 45.0 °F 48% 29.82 in 10.0 mi SSW 8.1 mph - N/A   Clear
4:56 AM 63.0 °F 46.0 °F 54% 29.83 in 10.0 mi SW 4.6 mph - N/A   Clear
5:56 AM 64.9 °F 45.0 °F 48% 29.83 in 10.0 mi SW 6.9 mph - N/A   Clear
6:56 AM 66.0 °F 50.0 °F 56% 29.86 in 10.0 mi West 4.6 mph - N/A   Clear
7:56 AM 75.0 °F 50.0 °F 41% 29.85 in 10.0 mi WSW 3.5 mph - N/A   Clear
8:56 AM 80.1 °F 44.1 °F 28% 29.85 in 10.0 mi Calm Calm - N/A   Clear
9:56 AM 82.9 °F 41.0 °F 23% 29.84 in 10.0 mi Calm Calm - N/A   Clear
10:56 AM 84.9 °F 41.0 °F 21% 29.83 in 10.0 mi Variable 4.6 mph - N/A   Clear
11:56 AM 87.1 °F 44.1 °F 22% 29.81 in 10.0 mi ENE 8.1 mph - N/A   Clear
12:56 PM 87.1 °F 43.0 °F 21% 29.81 in 10.0 mi ENE 8.1 mph - N/A   Clear
1:56 PM 87.1 °F 42.1 °F 21% 29.78 in 10.0 mi ENE 6.9 mph - N/A   Clear
2:56 PM 87.1 °F 41.0 °F 20% 29.76 in 10.0 mi Variable 3.5 mph - N/A   Clear
3:56 PM 87.1 °F 41.0 °F 20% 29.76 in 10.0 mi SW 5.8 mph - N/A   Clear
4:56 PM 87.1 °F 42.1 °F 21% 29.76 in 10.0 mi ENE 5.8 mph - N/A   Clear
5:56 PM 86.0 °F 43.0 °F 22% 29.75 in 10.0 mi Calm Calm - N/A   Clear
6:56 PM 75.9 °F 46.9 °F 36% 29.78 in 10.0 mi South 6.9 mph - N/A   Clear
7:56 PM 75.0 °F 45.0 °F 34% 29.79 in 10.0 mi South 8.1 mph - N/A   Clear
8:56 PM 73.0 °F 48.0 °F 41% 29.80 in 10.0 mi SSW 8.1 mph - N/A   Clear
9:56 PM 66.0 °F 52.0 °F 60% 29.82 in 10.0 mi West 6.9 mph - N/A   Clear
10:56 PM 73.0 °F 46.9 °F 39% 29.80 in 10.0 mi SSW 6.9 mph - N/A   Clear
11:56 PM 64.9 °F 50.0 °F 58% 29.82 in 10.0 mi SW 5.8 mph - N/A   Clear